This is the latest recevied weather packets stored in our database for station/object JE4YKI-13. If no packets are shown the sender has not sent any weather packets the latest 10 day(s).
| Time | Temp. | Humidity | Pressure | Rain* | Wind** | Luminosity | Snow |
|---|---|---|---|---|---|---|---|
| 1777814887 | 17.22° C | 91% | 1001.3 hPa | 0 mm | - | - | - |
| 1777814286 | 17.22° C | 92% | 1001.3 hPa | 0 mm | - | - | - |
| 1777813750 | 17.78° C | 92% | 1001.3 hPa | 0 mm | - | - | - |
| 1777813685 | 17.78° C | 92% | 1001.3 hPa | 0 mm | - | - | - |
| 1777813085 | 17.78° C | 92% | 1001.3 hPa | 0 mm | - | - | - |
| 1777812484 | 17.22° C | 95% | 1001.1 hPa | 0 mm | - | - | - |
| 1777811884 | 17.22° C | 96% | 1001.2 hPa | 0 mm | - | - | - |
| 1777811283 | 17.78° C | 96% | 1001.2 hPa | 0 mm | - | - | - |
| 1777810685 | 17.78° C | 96% | 1001.2 hPa | 0 mm | - | - | - |
| 1777810080 | 17.78° C | 97% | 1000.9 hPa | 0 mm | - | - | - |
| 1777809480 | 17.78° C | 96% | 1001 hPa | 1.02 mm | - | - | - |
| 1777808880 | 17.78° C | 97% | 1001 hPa | 1.78 mm | - | - | - |
| 1777808279 | 17.78° C | 97% | 1001.1 hPa | 1.27 mm | - | - | - |
| 1777807679 | 17.78° C | 97% | 1000.8 hPa | 1.27 mm | - | - | - |
| 1777807077 | 17.78° C | 97% | 1000.7 hPa | 1.02 mm | - | - | - |
| 1777806476 | 17.78° C | 98% | 1000.5 hPa | 0 mm | - | - | - |
| 1777805876 | 17.22° C | 98% | 1000.5 hPa | 0 mm | - | - | - |
| 1777805276 | 17.22° C | 97% | 1000.2 hPa | 1.27 mm | - | - | - |
| 1777804675 | 16.67° C | 97% | 1000.1 hPa | 1.27 mm | - | - | - |
| 1777804076 | 16.67° C | 97% | 1000.1 hPa | 1.52 mm | - | - | - |
| 1777803474 | 16.67° C | 97% | 1000.2 hPa | 2.54 mm | - | - | - |
| 1777802875 | 16.67° C | 97% | 1000 hPa | 3.3 mm | - | - | - |
| 1777802273 | 16.11° C | 97% | 999.9 hPa | 3.56 mm | - | - | - |
| 1777801673 | 16.11° C | 97% | 999.8 hPa | 5.08 mm | - | - | - |
| 1777801072 | 16.11° C | 97% | 999.9 hPa | 4.06 mm | - | - | - |
* Rain latest hour (hover to see other rain measurements)
** Current wind speed in m/s (hover to see current wind gust speed)